Weather History for Tyler, TX

Change the Weather History Date:

Monday, October 27, 2014

  Actual Average Record
Temperature  
Mean Temperature 72 °F 63 °F  
Max Temperature 83 °F 74 °F 89 °F (1938)
Min Temperature 61 °F 53 °F 30 °F (1957)
Degree Days  
Heating Degree Days 0 4  
Month to date heating degree days 5 53  
Since 1 July heating degree days 5 58  
Cooling Degree Days 7 2  
Month to date cooling degree days 183 120  
Year to date cooling degree days 2585 2384  
Growing Degree Days 22 (Base 50)    
Moisture  
Dew Point 59 °F    
Average Humidity 67    
Maximum Humidity 90    
Minimum Humidity 43    
Precipitation  
Precipitation 0.00 in 0.16 in 3.59 in (1970)
Month to date precipitation 4.47 4.20  
Year to date precipitation 28.69 36.80  
Snow  
Snow 0.00 in - - ()
Month to date snowfall 0.0  
Since 1 July snowfall 0.0  
Since 1 September snowfall 0.0  
Snow Depth 0.00 in    
Sea Level Pressure  
Sea Level Pressure 29.88 in    
Wind  
Wind Speed 13 mph (South)    
Max Wind Speed 24 mph    
Max Gust Speed 30 mph    
Visibility 10 miles    
Events      
T = Trace of Precipitation, MM = Missing Value Source: NWS Daily Summary

Daily Weather History Graph

Daily Weather History Graph

Search for Another Location

Airport:

Trip Planner

Search our weather history database for the weather conditions in past years. The results will help you decide how hot, cold, wet, or windy it might be!

Date:

Astronomy

Oct. 27, 2014 Rise Set
Actual Time 7:34 AM CDT 6:35 PM CDT
Civil Twilight 7:09 AM CDT 7:00 PM CDT
Nautical Twilight 6:40 AM CDT 7:29 PM CDT
Astronomical Twilight 6:12 AM CDT 7:58 PM CDT
Moon 11:04 AM CDT (10/27) 9:49 PM CDT (10/27)
Length of Visible Light 11h 51m
Length of Day
11h 01m
Waxing Crescent, 15% of the Moon is Illuminated
Oct 27
Waxing Crescent
Oct 30
First Quarter
Nov 6
Full
Nov 14
Last Quarter
Nov 22
New

Hourly Weather History & Observations

Time (CDT) Temp. Heat Index Dew Point Humidity Pressure Visibility Wind Dir Wind Speed Gust Speed Precip Events Conditions
12:53 AM 66.9 °F - 59.0 °F 76% 29.89 in 10.0 mi South 13.8 mph - N/A   Clear
1:53 AM 64.9 °F - 59.0 °F 81% 29.90 in 10.0 mi South 11.5 mph - N/A   Clear
2:53 AM 64.0 °F - 59.0 °F 84% 29.90 in 10.0 mi South 11.5 mph - N/A   Clear
3:53 AM 64.0 °F - 59.0 °F 84% 29.89 in 10.0 mi South 9.2 mph - N/A   Clear
4:53 AM 63.0 °F - 59.0 °F 87% 29.88 in 10.0 mi South 10.4 mph - N/A   Clear
5:53 AM 62.1 °F - 59.0 °F 90% 29.89 in 10.0 mi South 10.4 mph - N/A   Clear
6:53 AM 62.1 °F - 59.0 °F 90% 29.90 in 10.0 mi South 6.9 mph - N/A   Clear
7:53 AM 62.1 °F - 59.0 °F 90% 29.90 in 10.0 mi SSE 10.4 mph - N/A   Clear
8:53 AM 64.9 °F - 61.0 °F 87% 29.91 in 10.0 mi South 8.1 mph - N/A   Clear
9:53 AM 71.1 °F - 62.1 °F 73% 29.92 in 10.0 mi SSW 15.0 mph - N/A   Clear
10:53 AM 75.0 °F - 63.0 °F 66% 29.92 in 10.0 mi South 15.0 mph 23.0 mph N/A   Clear
11:53 AM 77.0 °F - 62.1 °F 60% 29.91 in 10.0 mi SSW 16.1 mph - N/A   Scattered Clouds
12:53 PM 80.1 °F 80.9 °F 60.1 °F 50% 29.88 in 10.0 mi SSW 18.4 mph 26.5 mph N/A   Partly Cloudy
1:53 PM 81.0 °F 81.1 °F 57.9 °F 45% 29.87 in 10.0 mi SSW 19.6 mph 27.6 mph N/A   Clear
2:53 PM 82.0 °F 82.0 °F 57.9 °F 44% 29.85 in 10.0 mi South 18.4 mph - N/A   Partly Cloudy
3:53 PM 82.9 °F 82.4 °F 57.0 °F 41% 29.84 in 10.0 mi South 13.8 mph 25.3 mph N/A   Clear
4:53 PM 82.0 °F 81.7 °F 57.0 °F 42% 29.84 in 10.0 mi South 16.1 mph - N/A   Clear
5:53 PM 80.1 °F 80.6 °F 57.9 °F 47% 29.84 in 10.0 mi SSW 12.7 mph 21.9 mph N/A   Clear
6:53 PM 75.9 °F - 57.9 °F 54% 29.84 in 10.0 mi South 8.1 mph - N/A   Clear
7:53 PM 73.9 °F - 59.0 °F 59% 29.85 in 10.0 mi South 10.4 mph - N/A   Clear
8:53 PM 73.9 °F - 57.9 °F 57% 29.86 in 10.0 mi South 15.0 mph - N/A   Clear
9:53 PM 72.0 °F - 59.0 °F 64% 29.88 in 10.0 mi South 13.8 mph - N/A   Clear
10:53 PM 71.1 °F - 59.0 °F 66% 29.88 in 10.0 mi South 13.8 mph - N/A   Clear
11:53 PM 71.1 °F - 60.1 °F 68% 29.88 in 10.0 mi South 17.3 mph - N/A   Clear